Lid_Strength_Index
1 2 2 3 3 3 4 3 2 2 3 3 3 4 5 5 6 6 7 7 9 9
1 2 2 2 3 3 3 4 3 2 3 3 4 4 5 6 6 7 8 9 10 10
2 1 1 2 3 4 4 4 3 3 3 3 4 5 6 6 7 8 9 9 10 11
2 2 2 3 3 4 5 4 3 3 3 3 4 5 6 7 8 9 10 10 11 11
2 2 2 3 3 4 4 4 3 3 3 3 3 5 5 6 7 9 10 11 11 11
2 3 3 3 3 4 4 4 4 4 3 3 3 4 5 5 7 8 9 10 11 12
2 2 2 2 3 3 3 4 4 4 4 3 3 4 5 6 7 7 8 10 11 12
6 3 2 2 2 3 3 3 3 3 4 4 4 4 4 5 6 7 8 10 11 12
8 7 5 3 2 2 3 3 3 3 3 4 4 5 6 5 6 7 9 10 11 11
11 10 9 7 6 5 3 3 3 3 4 4 4 6 7 7 6 8 9 10 11 13
12 11 10 9 8 8 6 5 4 3 3 3 3 7 7 8 6 8 9 10 12 12
13 12 10 10 10 10 9 8 6 5 4 3 3 6 7 8 7 10 12 12 12 12
13 12 10 9 9 9 9 7 7 7 6 7 6 8 8 7 8 11 13 14 13 12
14 13 11 10 9 8 9 9 9 9 9 9 8 9 8 8 11 11 13 14 15 13